Location: Gniazdowice
(50.2124°N, 20.2673°E)
Time: 21:07:11
(UTC+00:00)

Nadezhda 3 Rocket - Pass Details

Date: 23 May 2024
Orbit: 956 x 998 km, 82.9° (Epoch: 22 June)

Event Time Altitude Azimuth Distance (km) Brightness Sun altitude
Rises 01:28:51 0° 351° (N) 3,734 7.7 -9.5°
Reaches altitude 10° 01:31:25 10° 354° (N) 2,779 7.0 -9.2°
Maximum altitude 01:37:48 70° 78° (ENE) 1,060 4.4 -8.5°
Drops below altitude 10° 01:44:05 10° 162° (SSE) 2,744 6.1 -7.9°
Sets 01:46:36 0° 165° (SSE) 3,683 6.7 -7.6°
